Weather History for Galena, AK

Change the Weather History Date:

Thursday, January 17, 2013

  Actual Average Record
Temperature  
Mean Temperature -8 °F -  
Max Temperature -4 °F -2 °F 46 °F (2009)
Min Temperature -13 °F -13 °F -56 °F (1951)
Degree Days  
Heating Degree Days 74    
Moisture  
Dew Point -12 °F    
Average Humidity 82    
Maximum Humidity 87    
Minimum Humidity 78    
Precipitation  
Precipitation 0.00 in - - ()
Sea Level Pressure  
Sea Level Pressure 30.21 in    
Wind  
Wind Speed 5 mph (NW)    
Max Wind Speed 8 mph    
Max Gust Speed -    
Visibility 9 miles    
Events Snow    
Averages and records for this station are not official NWS values.
T = Trace of Precipitation, MM = Missing Value Source: NWS Daily Summary

Daily Weather History Graph

Daily Weather History Graph

Search for Another Location

Airport:

Trip Planner

Search our weather history database for the weather conditions in past years. The results will help you decide how hot, cold, wet, or windy it might be!

Date:

Astronomy

Jan. 17, 2013 Rise Set
Actual Time 10:55 AM AKST 4:21 PM AKST
Civil Twilight 9:47 AM AKST 5:29 PM AKST
Nautical Twilight 8:42 AM AKST 6:34 PM AKST
Astronomical Twilight 7:43 AM AKST 7:33 PM AKST
Moon 11:11 AM AKST (1/17) 1:09 AM AKST (1/17)
Length of Visible Light 7h 42m
Length of Day
5h 25m
Waxing Crescent, 39% of the Moon is Illuminated
Jan 17
Waxing Crescent
Jan 18
First Quarter
Jan 26
Full
Feb 3
Last Quarter
Feb 9
New

Hourly Weather History & Observations

Time (AKST) Temp. Windchill Dew Point Humidity Pressure Visibility Wind Dir Wind Speed Gust Speed Precip Events Conditions
12:58 AM -8.0 °F -19.2 °F -11.9 °F 83% 30.13 in 6.0 mi West 4.6 mph - 0.00 in Snow Light Snow
1:58 AM -7.1 °F -19.9 °F -9.9 °F 87% 30.13 in 6.0 mi West 5.8 mph - 0.00 in Snow Light Snow
2:58 AM -6.0 °F -18.6 °F -9.0 °F 87% 30.13 in 8.0 mi West 5.8 mph - 0.00 in Snow Light Snow
3:58 AM -5.1 °F -15.8 °F -9.0 °F 83% 30.13 in 9.0 mi WNW 4.6 mph - 0.00 in Snow Light Snow
4:58 AM -5.1 °F -15.8 °F -9.0 °F 83% 30.13 in 9.0 mi NNW 4.6 mph - 0.00 in Snow Light Snow
5:58 AM -7.1 °F -15.9 °F -9.9 °F 87% 30.14 in 10.0 mi NW 3.5 mph - 0.00 in   Mostly Cloudy
6:58 AM -8.0 °F -19.2 °F -11.9 °F 83% 30.14 in 10.0 mi NW 4.6 mph - N/A   Overcast
7:58 AM -11.0 °F -24.6 °F -15.0 °F 83% 30.14 in 8.0 mi NNW 5.8 mph - N/A   Clear
8:58 AM -9.0 °F -23.8 °F -13.0 °F 83% 30.15 in 10.0 mi North 6.9 mph - N/A   Partly Cloudy
9:58 AM -8.0 °F -22.5 °F -11.0 °F 86% 30.17 in 10.0 mi North 6.9 mph - N/A   Clear
10:58 AM -7.1 °F -18.1 °F -11.0 °F 83% 30.18 in 10.0 mi North 4.6 mph - N/A   Scattered Clouds
11:58 AM -6.0 °F -21.5 °F -9.9 °F 83% 30.19 in 10.0 mi North 8.1 mph - N/A   Overcast
12:58 PM -4.0 °F -17.8 °F -9.0 °F 79% 30.21 in 10.0 mi Variable 6.9 mph - N/A   Clear
1:58 PM -4.0 °F -14.6 °F -8.0 °F 83% 30.22 in 10.0 mi Variable 4.6 mph - N/A   Clear
2:58 PM -5.1 °F -17.6 °F -9.0 °F 83% 30.23 in 10.0 mi North 5.8 mph - N/A   Clear
3:58 PM -6.0 °F -14.7 °F -11.0 °F 79% 30.24 in 10.0 mi Variable 3.5 mph - N/A   Clear
4:58 PM -9.0 °F -18.2 °F -13.0 °F 83% 30.25 in 10.0 mi Variable 3.5 mph - N/A   Clear
5:58 PM -9.0 °F -20.4 °F -13.0 °F 83% 30.26 in 10.0 mi Variable 4.6 mph - N/A   Clear
6:58 PM -9.9 °F -19.2 °F -15.0 °F 78% 30.27 in 10.0 mi Variable 3.5 mph - N/A   Clear
7:58 PM -11.0 °F - -16.1 °F 78% 30.30 in 10.0 mi Calm Calm - N/A   Clear
8:58 PM -13.0 °F -27.0 °F -18.0 °F 78% 30.31 in 10.0 mi North 5.8 mph - N/A   Clear
9:58 PM -13.0 °F -22.7 °F -18.0 °F 78% 30.32 in 10.0 mi Variable 3.5 mph - N/A   Clear
10:58 PM -13.0 °F - -17.0 °F 82% 30.35 in 10.0 mi Calm Calm - N/A   Clear
11:58 PM -13.0 °F - -18.0 °F 78% 30.37 in 10.0 mi Calm Calm - N/A   Clear